SCP
0 -0 0 0 0 -0 -0 -0 -0 -0 -0 -0 -0 -0 -0 -0 -0 -0 -0 -0 -0 -0 -0 -0 -0 -0 -0 -0 -0 -0 -0 -0 -0 0 -0 0 0 0 0 0 -0 0 0
-0 -0 0 0 0 0 0 -0 -0 -0 -0 -0 -0 -0 -0 -0 -0 -0 -0 -0 -0 -0 -0 -0 -0 -0 -0 -0 -0 -0 -0 0 -0 -0 -0 0 0 0 0 0 0 0 0
-0 -0 0 0 0 0 0 0 0 0 0 0 0 -0 -0 -0 -0 -0 -0 -0 -0 -0 -0 -0 -0 -0 -0 -0 0 0 0 0 -0 -0 -0 -0 0 0 0 0 -0 -0 -0
-0 -0 0 0 0 0 0 0 0 0 0 0 0 0 0 -0 0 -0 -0 -0 -0 -0 -0 -0 -0 0 0 0 0 0 0 0 -0 -0 -0 0 0 0 -0 -0 -0 -0 -0
0 0 0 0 0 0 0 0 0 0 0 0 0 0 0 0 0 0 0 0 0 0 0 0 0 0 0 0 0 0 0 0 -0 -0 0 0 0 0 -0 -0 0 0 0
0 0 0 0 0 0 0 0 0 0 0 0 0 0 0 0 0 0 0 0 0 0 0 0 0 0 0 0 0 0 0 0 0 0 0 0 0 0 0 0 0 0 0
0 0 0 0 0 0 0 0 0 0 0 0 0 0 0 0 0 0 0 0 0 0 0 0 0 0 0 0 0 0 0 0 0 0 0 0 0 0 0 0 0 0 0
0 0 0 0 0 0 0 0 0 0 0 0 0 0 0 0 0 0 0 0 0 0 0 0 0 0 0 0 0 0 0 0 0 0 0 0 0 0 0 0 0 0 0
0 0 0 0 0 0 0 0 0 0 0 0 0 0 0 0 0 0 0 0 0 0 0 0 0 0 0 0 0 0 0 0 0 0 0 0 0 0 0 0 0 0 0
0 0 0 0 0 0 0 0 0 0 0 0 0 0 0 0 0 0 0 0 0 0 0 0 0 0 0 0 0 0 0 0 0 0 0 0 0 0 0 0 0 0 0
0 0 0 0 0 0 0 0 0 0 0 0 0 0 0 0 0 0 0 0 0 0 0 0 0 0 0 0 0 0 0 0 0 0 0 0 0 0 0 0 0 0 0
0 0 0 0 0 0 0 0 0 0 0 0 0 0 0 0 0 0 0 0 0 0 0 0 0 0 0 0 0 0 0 0 0 0 0 0 0 0 0 0 0 0 0
0 0 0 0 0 0 0 0 0 0 0 0 0 0 0 0 0 0 0 0 0 0 0 0 0 0 0 0 0 0 0 0 0 0 0 0 0 0 0 0 0 0 0
0 0 0 0 0 0 0 0 0 0 0 0 0 0 0 0 0 0 0 0 0 0 0 0 0 0 0 0 0 0 0 0 0 0 0 0 0 0 0 0 0 0 0
0 0 0 0 0 0 0 0 0 0 0 0 0 0 0 0 0 0 0 0 0 0 0 0 0 0 0 0 0 0 0 0 0 0 0 0 0 0 0 0 0 0 0
0 0 0 0 0 0 0 0 0 0 0 0 0 0 0 0 0 0 0 0 0 0 0 0 0 0 0 0 0 0 0 0 0 0 0 0 0 0 0 0 0 0 0
0 0 0 0 0 0 0 0 0 0 0 0 0 0 0 0 0 0 0 0 0 0 0 0 0 0 0 0 0 0 0 0 0 0 0 0 0 0 0 0 0 0 0
0 0 0 0 0 0 0 0 0 0 0 0 0 0 0 0 0 0 0 0 0 0 0 0 0 0 0 0 0 0 0 0 0 0 0 0 0 0 0 0 0 0 0
0 0 0 0 0 0 0 0 0 0 0 0 0 0 0 0 0 0 0 0 0 0 0 0 0 0 0 0 0 0 0 0 0 0 0 0 0 0 0 0 0 0 0
0 0 0 0 0 0 0 0 0 0 0 0 0 0 0 0 0 0 0 0 0 0 0 0 0 0 0 0 0 0 0 0 0 0 0 0 0 0 0 0 0 0 0
0 0 0 0 0 0 0 0 0 0 0 0 0 0 0 0 0 0 0 0 0 0 0 0 0 0 0 0 0 0 0 0 0 0 0 0 0 0 0 0 0 0 0
0 0 0 0 0 0 0 0 0 0 0 0 0 0 0 0 0 0 0 0 0 0 0 0 0 0 0 0 0 0 0 0 0 0 0 0 0 0 0 0 0 0 0
0 0 0 0 0 0 0 0 0 0 0 0 0 0 0 0 0 0 0 0 0 0 0 0 0 0 0 0 0 0 0 0 0 0 0 0 0 0 0 0 0 0 0
0 0 0 0 0 0 0 0 0 0 0 0 0 0 0 0 0 0 0 0 0 0 0 0 0 0 0 0 0 0 0 0 0 0 0 0 0 0 0 0 0 0 0
0 0 0 0 0 0 0 0 0 0 0 0 0 0 0 0 0 0 0 0 0 0 0 0 0 0 0 0 0 0 0 0 0 0 0 0 0 0 0 0 0 0 0
0 0 0 0 0 0 0 0 0 0 0 0 0 0 0 0 0 0 0 0 0 0 0 0 0 0 0 0 0 0 0 0 0 0 0 0 0 0 0 0 0 0 0
Wind_Speed_500mb
34 45 47 40 36 31 28 24 24 23 23 21 18 15 13 17 19 23 25 26 24 22 21 23 24 24 25 25 26 26 26 25 28 35 37 37 37 37 34 38 31 32 34
38 46 49 42 37 35 33 27 26 21 21 21 17 17 16 18 22 23 24 27 22 20 20 22 23 24 24 24 25 27 26 27 32 38 39 33 33 33 33 32 26 23 26
44 45 49 45 42 40 37 35 29 26 22 20 23 19 19 21 23 24 24 24 22 21 20 20 21 22 23 24 25 26 26 27 30 31 33 19 24 29 30 35 45 54 59
46 45 51 47 43 42 40 36 33 29 25 24 27 24 23 24 24 24 24 24 22 21 19 19 20 22 23 25 25 25 24 26 29 30 26 13 14 22 33 40 41 43 39
46 44 47 48 45 44 41 37 33 31 29 28 29 28 25 24 22 24 26 25 24 23 21 20 23 23 23 23 24 22 21 22 22 25 15 15 28 32 34 31 26 23 22
46 43 52 51 49 48 45 39 35 32 33 37 34 31 29 27 26 25 25 24 24 23 21 21 21 24 24 23 21 19 19 21 21 21 16 28 31 29 26 24 23 15 7
40 43 50 54 51 51 48 41 35 35 35 37 38 35 35 30 29 27 28 29 23 22 23 21 20 22 20 20 25 25 27 27 22 25 36 46 35 28 24 15 5 2 11
39 41 46 57 56 53 51 42 36 38 37 38 42 38 35 32 31 30 25 28 24 25 23 22 21 19 14 14 24 26 27 28 34 36 37 31 29 19 12 4 5 13 20
40 43 40 56 55 55 53 46 41 38 39 41 43 39 35 31 30 30 27 28 27 25 25 23 20 17 13 20 24 24 25 31 33 30 27 28 22 4 6 13 21 23 19
41 48 48 51 57 57 56 51 47 41 41 42 39 39 35 36 35 33 34 32 30 27 24 23 21 19 14 17 23 25 15 10 22 22 20 15 4 7 15 23 22 17 18
47 49 54 52 52 54 56 55 51 45 46 45 43 40 39 41 40 38 39 38 38 30 23 24 21 16 14 18 23 25 25 14 14 15 11 8 17 12 19 16 17 17 18
55 57 55 57 58 55 47 48 54 51 52 50 48 47 45 40 38 40 42 44 42 35 27 25 23 13 9 22 26 27 24 14 14 17 14 10 13 5 11 16 17 17 21
55 63 67 61 66 61 61 54 52 50 50 49 48 50 44 37 41 47 47 48 44 37 35 30 23 14 15 24 26 20 25 16 15 20 18 12 6 16 18 20 21 21 21
55 65 74 72 69 72 66 59 55 53 52 52 50 48 46 45 46 44 48 46 46 40 34 32 30 30 25 28 28 27 25 23 18 21 22 15 6 12 15 16 16 16 15
55 62 70 84 83 77 74 59 55 57 56 53 49 50 48 49 45 43 44 42 42 42 39 31 35 29 26 28 29 29 29 28 24 19 26 19 15 10 4 7 12 11 11
59 62 71 74 88 90 85 68 63 62 58 57 55 58 57 50 45 41 44 43 38 42 39 35 35 31 30 32 33 32 31 29 25 19 22 21 19 17 12 7 5 3 7
68 64 70 77 81 99 98 74 66 65 63 66 61 60 62 54 45 45 53 59 50 45 42 41 37 32 32 35 35 33 31 30 28 25 20 20 19 17 14 12 10 10 11
66 73 74 86 83 87 95 88 75 73 70 69 67 61 63 58 52 52 56 51 48 43 40 44 40 35 34 37 36 34 34 31 29 26 22 20 17 16 14 14 13 14 17
64 64 79 85 91 97 97 102 80 80 73 70 71 66 63 64 67 62 55 51 50 48 46 46 41 37 39 40 37 35 32 31 28 25 22 20 19 18 15 15 15 17 20
72 71 67 88 93 98 91 100 82 81 72 76 73 70 70 74 66 63 61 55 53 53 51 48 44 40 41 41 39 37 34 29 27 26 24 22 20 17 16 16 20 20 23
71 76 83 77 99 101 98 105 86 85 84 82 77 78 76 75 72 68 61 59 55 53 51 50 48 46 47 47 41 32 29 30 29 28 26 23 21 19 18 19 21 24 25
65 68 79 75 91 101 103 103 103 94 98 90 84 84 81 75 76 73 67 64 62 58 54 55 53 50 48 46 38 29 19 24 32 31 28 26 23 22 23 22 23 25 26
59 69 72 83 86 114 110 102 106 87 87 79 85 86 86 83 78 74 69 66 63 60 59 58 56 54 54 51 42 26 14 12 19 28 32 28 26 27 26 24 26 27 28
52 65 77 72 87 102 116 115 123 112 110 113 104 93 93 85 80 72 71 67 63 61 60 58 57 55 52 50 51 42 20 13 11 7 15 22 26 27 26 28 29 29 28
57 55 71 79 83 94 123 129 131 121 118 115 112 101 96 90 87 79 76 69 66 62 61 59 57 58 53 45 46 45 35 22 17 11 7 14 20 23 26 27 31 30 27
71 73 74 80 83 93 102 135 135 131 113 104 113 108 98 95 90 80 76 70 66 64 61 58 54 53 47 40 37 34 27 22 17 16 15 13 12 23 22 28 27 27 29
Wind_Direction_500mb
177 186 183 181 183 178 180 180 181 178 173 169 181 173 166 165 158 142 131 126 126 123 121 121 119 119 116 113 110 106 100 96 96 92 90 88 85 85 92 90 75 81 79
174 191 182 182 186 181 189 188 189 186 170 174 183 178 175 169 147 135 132 127 128 126 126 122 123 123 120 115 108 106 98 97 104 101 90 79 86 88 88 81 76 77 75
168 185 182 184 187 189 196 199 190 193 193 192 164 173 169 157 143 137 136 134 135 128 125 124 124 122 116 115 110 109 102 103 110 99 85 85 82 86 88 79 93 100 102
171 188 184 188 194 196 195 204 198 197 200 192 166 167 163 155 148 143 143 134 133 133 128 124 126 123 117 112 111 111 105 103 110 92 91 91 97 105 107 114 121 119 119
175 187 187 190 195 198 196 191 189 195 197 181 174 171 163 158 155 156 147 143 143 138 135 127 123 125 119 114 113 109 105 104 100 91 101 104 115 122 134 136 118 112 112
177 183 197 192 193 196 198 197 193 198 195 176 180 167 173 166 169 157 152 152 145 139 135 117 120 126 120 116 107 104 106 115 113 132 130 122 124 130 135 137 133 112 96
183 182 203 193 193 198 202 202 203 204 199 185 174 179 176 172 169 162 164 162 145 139 132 131 134 122 121 120 109 98 103 97 127 141 132 127 124 129 141 137 101 9 320
188 190 208 195 196 200 203 204 206 202 201 195 182 186 182 179 176 180 157 147 150 137 137 140 129 137 124 131 127 111 114 116 119 133 133 129 118 136 128 108 303 298 324
196 192 198 194 199 199 204 209 207 207 205 200 192 194 188 186 180 170 156 147 155 159 154 155 155 146 133 134 133 127 122 123 129 132 134 117 107 162 332 312 312 322 344
197 201 196 193 201 204 207 213 211 213 213 209 198 195 189 185 176 167 162 161 165 171 167 169 167 166 155 150 144 138 134 140 132 137 133 144 184 301 299 325 325 357 16
201 208 207 198 203 203 209 210 211 217 218 213 207 201 191 184 180 176 170 170 173 172 176 184 178 174 178 158 158 146 115 147 180 158 171 202 263 297 317 338 347 19 37
213 203 208 209 207 203 205 214 211 211 212 209 204 201 195 189 190 179 181 176 178 178 177 189 178 195 209 164 162 149 142 169 162 162 194 237 291 357 340 352 11 46 61
232 222 211 210 211 208 198 207 205 207 205 204 205 204 189 195 196 183 188 180 180 183 190 184 196 193 179 161 159 153 145 134 169 176 179 209 224 90 82 78 76 73 65
226 234 218 206 213 214 206 204 206 205 205 206 209 206 188 196 204 193 185 181 184 192 198 197 195 188 182 175 178 172 158 143 156 169 171 190 224 107 93 86 76 71 62
232 228 231 217 215 216 210 205 203 201 207 202 204 205 202 198 199 202 190 191 187 193 193 194 196 209 198 192 187 183 175 167 160 191 187 198 222 214 154 90 93 76 64
238 230 232 232 218 219 218 208 204 205 208 202 201 206 202 200 199 203 193 197 193 200 197 200 210 202 198 194 189 187 187 186 186 195 198 212 227 246 261 250 289 358 88
243 241 235 230 223 222 223 209 205 206 204 205 200 207 199 197 205 200 201 197 202 208 212 214 206 202 202 194 193 192 193 194 196 201 204 213 228 240 251 271 287 291 303
258 240 238 234 227 218 223 216 208 208 205 207 199 201 204 199 203 203 207 202 208 214 219 214 209 202 201 195 193 193 197 199 203 207 214 224 233 241 252 266 283 295 300
259 254 239 238 239 226 229 221 208 209 208 203 203 203 203 204 208 204 202 207 213 215 217 213 210 206 197 191 193 195 198 201 204 212 221 228 236 250 261 275 289 298 305
251 253 251 236 236 228 227 216 207 206 205 204 201 205 206 209 210 205 207 212 215 219 215 213 211 201 201 198 193 196 202 204 210 216 224 233 241 250 267 288 297 304 309
258 250 244 246 229 228 222 213 202 199 201 208 201 206 209 210 204 210 211 210 217 220 218 217 211 206 200 203 200 192 196 206 216 224 232 240 248 259 275 288 295 306 313
263 258 249 246 231 229 222 221 206 205 208 206 203 208 210 207 208 210 213 216 219 219 217 220 218 208 208 207 202 197 198 217 227 232 239 250 258 268 278 288 301 309 310
264 261 255 247 238 227 224 217 212 201 203 196 205 209 207 210 212 212 216 217 220 220 223 221 219 216 216 200 201 190 186 202 214 236 239 248 257 268 279 291 303 307 310
280 268 253 252 243 226 224 214 208 201 203 209 212 207 207 209 210 214 216 220 223 223 222 219 217 217 217 215 211 206 204 193 170 213 237 243 253 266 280 293 303 306 305
282 280 267 251 246 236 213 209 212 214 222 214 209 208 205 206 208 212 216 218 219 217 217 217 215 214 218 222 221 215 217 226 228 211 251 251 256 266 279 291 300 299 299
282 284 268 259 242 238 231 206 208 212 212 204 209 203 204 206 207 210 214 217 217 214 212 218 218 214 216 215 217 218 227 232 224 215 218 247 257 283 292 293 293 297 302
Wind_Speed_850mb
34 45 47 40 36 31 28 24 24 23 23 21 18 15 13 17 19 23 25 26 24 22 21 23 24 24 25 25 26 26 26 25 28 35 37 37 37 37 34 38 31 32 34
38 46 49 42 37 35 33 27 26 21 21 21 17 17 16 18 22 23 24 27 22 20 20 22 23 24 24 24 25 27 26 27 32 38 39 33 33 33 33 32 26 23 26
44 45 49 45 42 40 37 35 29 26 22 20 23 19 19 21 23 24 24 24 22 21 20 20 21 22 23 24 25 26 26 27 30 31 33 19 24 29 30 35 45 54 59
46 45 51 47 43 42 40 36 33 29 25 24 27 24 23 24 24 24 24 24 22 21 19 19 20 22 23 25 25 25 24 26 29 30 26 13 14 22 33 40 41 43 39
46 44 47 48 45 44 41 37 33 31 29 28 29 28 25 24 22 24 26 25 24 23 21 20 23 23 23 23 24 22 21 22 22 25 15 15 28 32 34 31 26 23 22
46 43 52 51 49 48 45 39 35 32 33 37 34 31 29 27 26 25 25 24 24 23 21 21 21 24 24 23 21 19 19 21 21 21 16 28 31 29 26 24 23 15 7
40 43 50 54 51 51 48 41 35 35 35 37 38 35 35 30 29 27 28 29 23 22 23 21 20 22 20 20 25 25 27 27 22 25 36 46 35 28 24 15 5 2 11
39 41 46 57 56 53 51 42 36 38 37 38 42 38 35 32 31 30 25 28 24 25 23 22 21 19 14 14 24 26 27 28 34 36 37 31 29 19 12 4 5 13 20
40 43 40 56 55 55 53 46 41 38 39 41 43 39 35 31 30 30 27 28 27 25 25 23 20 17 13 20 24 24 25 31 33 30 27 28 22 4 6 13 21 23 19
41 48 48 51 57 57 56 51 47 41 41 42 39 39 35 36 35 33 34 32 30 27 24 23 21 19 14 17 23 25 15 10 22 22 20 15 4 7 15 23 22 17 18
47 49 54 52 52 54 56 55 51 45 46 45 43 40 39 41 40 38 39 38 38 30 23 24 21 16 14 18 23 25 25 14 14 15 11 8 17 12 19 16 17 17 18
55 57 55 57 58 55 47 48 54 51 52 50 48 47 45 40 38 40 42 44 42 35 27 25 23 13 9 22 26 27 24 14 14 17 14 10 13 5 11 16 17 17 21
55 63 67 61 66 61 61 54 52 50 50 49 48 50 44 37 41 47 47 48 44 37 35 30 23 14 15 24 26 20 25 16 15 20 18 12 6 16 18 20 21 21 21
55 65 74 72 69 72 66 59 55 53 52 52 50 48 46 45 46 44 48 46 46 40 34 32 30 30 25 28 28 27 25 23 18 21 22 15 6 12 15 16 16 16 15
55 62 70 84 83 77 74 59 55 57 56 53 49 50 48 49 45 43 44 42 42 42 39 31 35 29 26 28 29 29 29 28 24 19 26 19 15 10 4 7 12 11 11
59 62 71 74 88 90 85 68 63 62 58 57 55 58 57 50 45 41 44 43 38 42 39 35 35 31 30 32 33 32 31 29 25 19 22 21 19 17 12 7 5 3 7
68 64 70 77 81 99 98 74 66 65 63 66 61 60 62 54 45 45 53 59 50 45 42 41 37 32 32 35 35 33 31 30 28 25 20 20 19 17 14 12 10 10 11
66 73 74 86 83 87 95 88 75 73 70 69 67 61 63 58 52 52 56 51 48 43 40 44 40 35 34 37 36 34 34 31 29 26 22 20 17 16 14 14 13 14 17
64 64 79 85 91 97 97 102 80 80 73 70 71 66 63 64 67 62 55 51 50 48 46 46 41 37 39 40 37 35 32 31 28 25 22 20 19 18 15 15 15 17 20
72 71 67 88 93 98 91 100 82 81 72 76 73 70 70 74 66 63 61 55 53 53 51 48 44 40 41 41 39 37 34 29 27 26 24 22 20 17 16 16 20 20 23
71 76 83 77 99 101 98 105 86 85 84 82 77 78 76 75 72 68 61 59 55 53 51 50 48 46 47 47 41 32 29 30 29 28 26 23 21 19 18 19 21 24 25
65 68 79 75 91 101 103 103 103 94 98 90 84 84 81 75 76 73 67 64 62 58 54 55 53 50 48 46 38 29 19 24 32 31 28 26 23 22 23 22 23 25 26
59 69 72 83 86 114 110 102 106 87 87 79 85 86 86 83 78 74 69 66 63 60 59 58 56 54 54 51 42 26 14 12 19 28 32 28 26 27 26 24 26 27 28
52 65 77 72 87 102 116 115 123 112 110 113 104 93 93 85 80 72 71 67 63 61 60 58 57 55 52 50 51 42 20 13 11 7 15 22 26 27 26 28 29 29 28
57 55 71 79 83 94 123 129 131 121 118 115 112 101 96 90 87 79 76 69 66 62 61 59 57 58 53 45 46 45 35 22 17 11 7 14 20 23 26 27 31 30 27
71 73 74 80 83 93 102 135 135 131 113 104 113 108 98 95 90 80 76 70 66 64 61 58 54 53 47 40 37 34 27 22 17 16 15 13 12 23 22 28 27 27 29
Wind_Direction_850mb
177 186 183 181 183 178 180 180 181 178 173 169 181 173 166 165 158 142 131 126 126 123 121 121 119 119 116 113 110 106 100 96 96 92 90 88 85 85 92 90 75 81 79
174 191 182 182 186 181 189 188 189 186 170 174 183 178 175 169 147 135 132 127 128 126 126 122 123 123 120 115 108 106 98 97 104 101 90 79 86 88 88 81 76 77 75
168 185 182 184 187 189 196 199 190 193 193 192 164 173 169 157 143 137 136 134 135 128 125 124 124 122 116 115 110 109 102 103 110 99 85 85 82 86 88 79 93 100 102
171 188 184 188 194 196 195 204 198 197 200 192 166 167 163 155 148 143 143 134 133 133 128 124 126 123 117 112 111 111 105 103 110 92 91 91 97 105 107 114 121 119 119
175 187 187 190 195 198 196 191 189 195 197 181 174 171 163 158 155 156 147 143 143 138 135 127 123 125 119 114 113 109 105 104 100 91 101 104 115 122 134 136 118 112 112
177 183 197 192 193 196 198 197 193 198 195 176 180 167 173 166 169 157 152 152 145 139 135 117 120 126 120 116 107 104 106 115 113 132 130 122 124 130 135 137 133 112 96
183 182 203 193 193 198 202 202 203 204 199 185 174 179 176 172 169 162 164 162 145 139 132 131 134 122 121 120 109 98 103 97 127 141 132 127 124 129 141 137 101 9 320
188 190 208 195 196 200 203 204 206 202 201 195 182 186 182 179 176 180 157 147 150 137 137 140 129 137 124 131 127 111 114 116 119 133 133 129 118 136 128 108 303 298 324
196 192 198 194 199 199 204 209 207 207 205 200 192 194 188 186 180 170 156 147 155 159 154 155 155 146 133 134 133 127 122 123 129 132 134 117 107 162 332 312 312 322 344
197 201 196 193 201 204 207 213 211 213 213 209 198 195 189 185 176 167 162 161 165 171 167 169 167 166 155 150 144 138 134 140 132 137 133 144 184 301 299 325 325 357 16
201 208 207 198 203 203 209 210 211 217 218 213 207 201 191 184 180 176 170 170 173 172 176 184 178 174 178 158 158 146 115 147 180 158 171 202 263 297 317 338 347 19 37
213 203 208 209 207 203 205 214 211 211 212 209 204 201 195 189 190 179 181 176 178 178 177 189 178 195 209 164 162 149 142 169 162 162 194 237 291 357 340 352 11 46 61
232 222 211 210 211 208 198 207 205 207 205 204 205 204 189 195 196 183 188 180 180 183 190 184 196 193 179 161 159 153 145 134 169 176 179 209 224 90 82 78 76 73 65
226 234 218 206 213 214 206 204 206 205 205 206 209 206 188 196 204 193 185 181 184 192 198 197 195 188 182 175 178 172 158 143 156 169 171 190 224 107 93 86 76 71 62
232 228 231 217 215 216 210 205 203 201 207 202 204 205 202 198 199 202 190 191 187 193 193 194 196 209 198 192 187 183 175 167 160 191 187 198 222 214 154 90 93 76 64
238 230 232 232 218 219 218 208 204 205 208 202 201 206 202 200 199 203 193 197 193 200 197 200 210 202 198 194 189 187 187 186 186 195 198 212 227 246 261 250 289 358 88
243 241 235 230 223 222 223 209 205 206 204 205 200 207 199 197 205 200 201 197 202 208 212 214 206 202 202 194 193 192 193 194 196 201 204 213 228 240 251 271 287 291 303
258 240 238 234 227 218 223 216 208 208 205 207 199 201 204 199 203 203 207 202 208 214 219 214 209 202 201 195 193 193 197 199 203 207 214 224 233 241 252 266 283 295 300
259 254 239 238 239 226 229 221 208 209 208 203 203 203 203 204 208 204 202 207 213 215 217 213 210 206 197 191 193 195 198 201 204 212 221 228 236 250 261 275 289 298 305
251 253 251 236 236 228 227 216 207 206 205 204 201 205 206 209 210 205 207 212 215 219 215 213 211 201 201 198 193 196 202 204 210 216 224 233 241 250 267 288 297 304 309
258 250 244 246 229 228 222 213 202 199 201 208 201 206 209 210 204 210 211 210 217 220 218 217 211 206 200 203 200 192 196 206 216 224 232 240 248 259 275 288 295 306 313
263 258 249 246 231 229 222 221 206 205 208 206 203 208 210 207 208 210 213 216 219 219 217 220 218 208 208 207 202 197 198 217 227 232 239 250 258 268 278 288 301 309 310
264 261 255 247 238 227 224 217 212 201 203 196 205 209 207 210 212 212 216 217 220 220 223 221 219 216 216 200 201 190 186 202 214 236 239 248 257 268 279 291 303 307 310
280 268 253 252 243 226 224 214 208 201 203 209 212 207 207 209 210 214 216 220 223 223 222 219 217 217 217 215 211 206 204 193 170 213 237 243 253 266 280 293 303 306 305
282 280 267 251 246 236 213 209 212 214 222 214 209 208 205 206 208 212 216 218 219 217 217 217 215 214 218 222 221 215 217 226 228 211 251 251 256 266 279 291 300 299 299
282 284 268 259 242 238 231 206 208 212 212 204 209 203 204 206 207 210 214 217 217 214 212 218 218 214 216 215 217 218 227 232 224 215 218 247 257 283 292 293 293 297 302